www.pogodaiklimat.ru
ПОГОДА в Вунстдрехте
Время
(UTC), дата
07 28.07
08 28.07
09 28.07
10 28.07
11 28.07
12 28.07
13 28.07
14 28.07
15 28.07
16 28.07
17 28.07
18 28.07
19 28.07
20 28.07
21 28.07
22 28.07
23 28.07
00 29.07
01 29.07
02 29.07
03 29.07
04 29.07
05 29.07
06 29.07
07 29.07
08 29.07
09 29.07
10 29.07
11 29.07
12 29.07
13 29.07
14 29.07
15 29.07
16 29.07
17 29.07
18 29.07
19 29.07
20 29.07
21 29.07
22 29.07
23 29.07
00 30.07
01 30.07
02 30.07
03 30.07
04 30.07
05 30.07
06 30.07
07 30.07
08 30.07
09 30.07
10 30.07
11 30.07
12 30.07
13 30.07
14 30.07
15 30.07
16 30.07
17 30.07
18 30.07
19 30.07
20 30.07
21 30.07
22 30.07
23 30.07
00 31.07
01 31.07
02 31.07
03 31.07
04 31.07
05 31.07
06 31.07
07 31.07
08 31.07
09 31.07
10 31.07
11 31.07
12 31.07
13 31.07
14 31.07
15 31.07
16 31.07
17 31.07
18 31.07
19 31.07
20 31.07
21 31.07
22 31.07
23 31.07
00 1.08
01 1.08
02 1.08
03 1.08
04 1.08
05 1.08
06 1.08
07 1.08
08 1.08
09 1.08
10 1.08
11 1.08
12 1.08
13 1.08
14 1.08
15 1.08
16 1.08
17 1.08
18 1.08
19 1.08
20 1.08
21 1.08
22 1.08
23 1.08
00 2.08
01 2.08
02 2.08
03 2.08
04 2.08
05 2.08
06 2.08
07 2.08
08 2.08
09 2.08
10 2.08
11 2.08
12 2.08
13 2.08
14 2.08
15 2.08
16 2.08
17 2.08
18 2.08
19 2.08
20 2.08
21 2.08
22 2.08
23 2.08
00 3.08
01 3.08
02 3.08
03 3.08
04 3.08
05 3.08
06 3.08
07 3.08
08 3.08
09 3.08
10 3.08
11 3.08
12 3.08
13 3.08
14 3.08
15 3.08
16 3.08
17 3.08
18 3.08
19 3.08
20 3.08
21 3.08
22 3.08
23 3.08
00 4.08
01 4.08
02 4.08
03 4.08
04 4.08
05 4.08
06 4.08
07 4.08
Ветер
(напр.,м/с)
Видим. Явления Облачность Т
(С)
Тd
(С)
f
(%)
Тe
(С)
Тes
(С)
Комфортность P
(гПа)
Po
(гПа)
Тmin
(С)
Tmax
(С)
R
(мм)
R24
(мм)
S
(см)
З 5-7
{7}
30 км 9/9 1500 м
[]
+17.6 +11.1 66 +17 +17 1011.2 1009.3
З 7-10
{10}
40 км 9/9 1000 м
[]
+17.2 +11.7 70 +16 +16 1011.8 1009.8
З 9-12
{12}
35 км в посл. час дождь 4 балла +19.5 +9.7 53 +20 +20 1012.1 1010.3
З 7-10
{12}
40 км {ливн. дождь} 4/4 1500 м
[]
+19.8 +10.7 56 +21 +23 комфорт 1012.6 1010.8
З 8-11
{12}
35 км {ливн. дождь} 6/6 1500 м
[]
+20.4 +12.3 60 +22 +23 комфорт 1013.1 1011.3
З 8-11
{12}
30 км {ливн. дождь} 10 баллов +20.4 +12.7 61 +22 +23 комфорт 1013.3 1011.5
З 9-13
{13}
40 км 9/9 1500 м
[]
+19.7 +10.9 57 +20 +20 1013.9 1012.1
З 8-11
{13}
40 км 9/9 1500 м
[]
+20.3 +11.0 55 +21 +22 комфорт 1014.2 1012.3
З 6-10
{13}
35 км 9 баллов +19.6 +11.8 61 +21 +21 комфорт 1015.0 1013.1
З 7-10
{12}
40 км 9/9 1500 м
[]
+19.3 +10.4 56 +20 +20 1015.5 1013.6
З 7-9
{11}
40 км 10/10 1500 м
[]
+19.0 +9.0 52 +19 +19 1015.9 1014.0
З 6-9
{13}
35 км 9 баллов +18.8 +8.8 52 +19 +19 1016.1 1014.2 +21.3
З 4-6
{9}
45 км 9/9 2000 м
[]
+16.9 +9.5 62 +16 +16 1016.3 1014.4
З 4-6
{7}
35 км 9/9 2000 м
[]
+16.6 +11.3 71 +16 +16 1016.8 1014.8
З 4-6
{9}
29 км 10 баллов +17.0 +12.5 75 +17 +17 1017.0 1015.1
ЮЗ 4-6
{6}
20 км 10/10 2000 м
[]
+16.6 +13.1 80 +16 +16 1017.0 1015.1
ЮЗ 3-5
{7}
20 км 10/10 1500 м
[]
+16.3 +12.9 80 +16 +16 1017.4 1015.5
ЮЗ 2-4
{9}
22 км 10 баллов +15.9 +12.7 81 +16 +16 1017.7 1015.7
ЮЗ 4-5
{5}
20 км 10/10 1500 м
[]
+15.6 +12.8 83 +15 +15 1017.9 1016.0
СЗ 3-5
{5}
45 км 10/10 1500 м
[]
+15.8 +9.4 66 +15 +15 1018.1 1016.2
СЗ 2-3
{5}
45 км 4 балла +13.9 +8.8 71 +13 +13 1018.3 1016.3
ЮЗ 2-2
{3}
45 км 1/1 1000 м
[]
+11.9 +9.5 85 +11 +11 1018.7 1016.7
штиль 0-1
{1}
35 км 3/3
[]
+10.8 +9.8 94 +10 +10 1019.2 1017.2
З 3-3
{5}
35 км 8 баллов +15.7 +10.5 71 +15 +16 1019.5 1017.6 +10.1
З 4-6
{6}
30 км ясно +17.2 +9.7 61 +17 +20 1019.9 1018.0
З 4-7
{7}
30 км 3/3 1000 м
[]
+18.9 +10.2 57 +20 +23 1020.6 1018.6
З 5-7
{8}
35 км 9 баллов +18.1 +9.9 59 +18 +18 1020.8 1018.8
З 5-7
{7}
35 км 8/8 1000 м
[]
+18.2 +8.8 54 +18 +19 1020.9 1019.0
СЗ 4-6
{10}
35 км 8/8 1000 м
[]
+18.5 +9.6 56 +19 +21 1021.1 1019.2
З 5-7
{10}
35 км 8 баллов +19.8 +9.3 51 +21 +22 комфорт 1021.0 1019.2
З 5-8
{8}
35 км 6/6
[]
+20.1 +9.7 51 +21 +24 комфорт 1021.0 1019.0
З 5-7
{7}
29 км 8/8
[]
+20.5 +10.1 51 +22 +23 комфорт 1020.8 1018.9
СЗ 5-8
{9}
17 км ясно +20.4 +9.1 48 +22 +26 комфорт 1020.7 1018.8
СЗ 4-6
{7}
30 км 8/8
[]
+20.1 +8.7 48 +21 +24 комфорт 1020.7 1018.8
СЗ 3-5
{6}
40 км 3/3
[]
+19.8 +8.5 48 +21 +23 комфорт 1020.6 1018.7
СЗ 2-3
{9}
35 км 3 балла +19.4 +9.1 51 +21 +21 комфорт 1020.5 1018.6 +21.1
СЗ 1-2
{4}
35 км 10/10
[]
+17.3 +8.5 56 +18 +18 1020.6 1018.7
штиль 0-1
{2}
23 км 10/10
[]
+15.3 +10.5 73 +15 +15 1020.7 1018.8
штиль 0-1
{4}
40 км 10 баллов +13.2 +10.2 82 +13 +13 1020.9 1019.0
штиль 0-1
{1}
45 км 10/10
[]
+12.2 +9.9 86 +12 +12 1020.9 1019.0
В 1-1
{1}
45 км 10/10
[]
+11.0 +9.4 90 +11 +11 1020.9 1019.0
СВ 1-2
{4}
40 км 10 баллов +11.0 +9.5 90 +11 +11 1020.9 1019.0
СВ 1-2
{2}
28 км 10/10
[]
+10.6 +9.3 92 +10 +10 1020.9 1019.0
В 1-2
{2}
16 км 10/10
[]
+10.0 +9.2 95 +9 +9 1020.9 1019.0
В 1-1
{2}
9000 м дымка 5 баллов +9.3 +8.5 95 +9 +9 1020.7 1018.8
ЮВ 1-2
{2}
9000 м дымка 10/10
[]
+9.3 +8.6 95 +9 +9 1020.6 1018.8
В 1-1
{3}
16 км 4/4
[]
+10.5 +9.8 95 +10 +10 1020.9 1019.0
В 1-2
{3}
22 км 8 баллов +15.1 +11.1 77 +16 +16 1021.1 1019.1 +8.2
ЮВ 2-3
{3}
35 км 10/10
[]
+18.1 +11.3 64 +19 +19 1021.0 1019.1
ЮВ 2-3
{4}
35 км 10/10
[]
+20.1 +12.2 60 +22 +22 комфорт 1021.0 1019.1
ЮВ 2-4
{4}
26 км 8 баллов +21.5 +11.8 54 +24 +26 комфорт 1021.0 1019.0
Ю 2-4
{4}
30 км ясно +22.7 +9.9 44 +24 +38 комфорт 1021.0 1019.1
ЮВ 2-5
{5}
30 км 6/6
[]
+23.9 +10.6 43 +25 +31 комфорт 1020.4 1018.5
З 3-5
{6}
28 км 1 балл +25.1 +10.9 41 +26 +38 жарко 1020.2 1018.4
СВ 2-3
{5}
29 км ясно +25.7 +10.2 38 +27 +41 жарко 1019.6 1017.7
С 1-3
{4}
35 км ясно +26.8 +11.0 37 +28 +41 жарко 1019.5 1017.6
В 2-4
{5}
30 км 4 балла +26.7 +11.9 40 +28 +33 жарко 1018.9 1017.0
В 2-3
{5}
29 км 8/8
[]
+26.8 +11.5 38 +28 +29 жарко 1018.4 1016.6
В 2-5
{5}
35 км ясно +26.7 +11.5 39 +28 +31 жарко 1018.0 1016.1
СВ 3-4
{5}
40 км ясно +25.9 +11.7 41 +27 +28 жарко 1017.7 1015.9 +27.0
СВ 3-4
{4}
40 км ясно +23.3 +13.9 55 +27 +27 душно 1017.7 1015.8
В 2-2
{4}
27 км ясно +20.9 +13.7 63 +24 +24 комфорт 1017.9 1016.1
В 2-2
{4}
21 км ясно +18.7 +13.4 71 +20 +20 1018.0 1016.2
В 2-3
{3}
30 км ясно +16.8 +13.1 79 +17 +17 1018.2 1016.2
В 2-2
{3}
40 км ясно +16.4 +12.6 78 +17 +17 1017.9 1016.1
В 2-3
{4}
30 км ясно +16.7 +12.2 75 +17 +17 1017.7 1016.0
В 2-3
{4}
30 км ясно +17.2 +11.5 69 +18 +18 1017.8 1016.0
В 2-3
{3}
30 км ясно +15.3 +11.2 77 +15 +15 1017.5 1015.7
В 2-3
{4}
30 км ясно +15.6 +11.0 74 +16 +16 1017.0 1015.2
В 3-4
{4}
30 км ясно +15.9 +10.7 71 +15 +15 1016.7 1014.9
В 3-5
{5}
26 км ясно +16.3 +11.0 71 +16 +16 1016.7 1014.9
В 3-4
{5}
23 км ясно +18.5 +11.8 65 +19 +21 1016.6 1014.8 +12.7
В 3-5
{5}
25 км ясно +21.3 +12.8 58 +24 +27 комфорт 1016.4 1014.6
В 4-6
{7}
25 км ясно +24.3 +12.8 49 +26 +31 жарко 1016.2 1014.5
В 4-7
{8}
27 км ясно +27.0 +12.4 40 +28 +35 жарко 1015.7 1013.9
В 4-7
{8}
30 км ясно +29.1 +12.0 35 +30 +39 жарко 1015.4 1013.6
В 4-6
{8}
29 км ясно +31.1 +10.7 28 +31 +41 жарко 1015.0 1013.2
В 4-9
{9}
30 км ясно +32.6 +10.0 25 +32 +42 жарко 1014.2 1012.4
В 4-7
{9}
35 км ясно +33.6 +10.2 24 +33 +42 жарко 1013.7 1011.9
В 4-8
{8}
35 км ясно +34.3 +9.7 22 +33 +41 жарко 1013.1 1011.3
В 4-6
{9}
35 км ясно +34.8 +10.6 23 +34 +40 очень
жарко
1012.8 1011.0
ЮВ 3-6
{7}
29 км ясно +35.1 +10.5 22 +34 +39 очень
жарко
1012.4 1010.6
В 3-6
{7}
17 км ясно +34.5 +12.6 27 +35 +37 очень
жарко
1011.9 1010.1
В 3-4
{9}
40 км ясно +32.9 +14.2 32 +34 +35 очень
жарко
1011.4 1009.6 +35.3
В 3-5
{5}
40 км 10/10
[]
+29.8 +14.6 40 +32 +32 душно 1011.2 1009.5
В 3-4
{5}
25 км 10/10
[]
+28.5 +14.2 42 +31 +31 душно 1011.2 1009.5
В 3-4
{5}
35 км 10 баллов +27.4 +14.2 44 +30 +30 жарко 1011.2 1009.4
З 4-6
{10}
40 км 10/10
[]
+27.1 +16.6 53 +31 +31 душно 1012.2 1010.4
СЗ 3-5
{7}
35 км зарница 10/10
[]
+25.6 +17.0 59 +29 +29 душно 1012.0 1010.1
СЗ 1-2
{10}
11 км в посл. час дождь 10 баллов +21.1 +20.4 96 +26 +26 душно 1012.1 1010.3 5
ЮЗ 2-3
{4}
7000 м дымка 10/10
[]
+20.9 +20.2 96 +27 +27 душно 1012.0 1010.2
ЮЗ 4-5
{5}
13 км слаб. ливневой дождь 10/10
[]
+21.1 +18.9 87 +25 +25 комфорт 1012.4 1010.5
ЮЗ 3-5
{5}
15 км в посл. час дождь {ливн. дождь} 10 баллов +20.5 +17.5 83 +24 +24 комфорт 1013.0 1011.3
З 5-6
{6}
18 км {ливн. дождь, дымка} 9/9
[]
+18.5 +16.4 88 +19 +19 1013.2 1011.3
З 5-7
{8}
16 км {ливн. дождь, дымка} 10/10
[]
+18.5 +16.7 89 +19 +19 1013.6 1011.7
З 4-6
{8}
14 км {ливн. дождь, дымка} 8 баллов +18.7 +17.1 90 +20 +20 1013.7 1012.0 +18.1 5 5.0
З 4-6
{6}
9000 м дымка 10/10 200 м
[]
+19.5 +18.1 92 +22 +22 комфорт 1014.1 1012.3
З 5-8
{8}
13 км 10/10 300 м
[]
+20.3 +18.4 89 +24 +24 комфорт 1014.5 1012.8
З 5-7
{8}
12 км 10 баллов +20.2 +18.3 89 +23 +23 комфорт 1015.4 1013.5
З 4-6
{7}
13 км 10/10 200 м
[]
+20.2 +18.3 89 +24 +24 комфорт 1015.9 1014.1
З 4-6
{7}
11 км 10/10 200 м
[]
+20.5 +18.1 86 +24 +24 комфорт 1016.1 1014.3
З 6-7
{8}
12 км 10 баллов +20.5 +18.0 86 +24 +24 комфорт 1016.1 1014.3
З 4-5
{7}
19 км 9/9 600 м
[]
+22.1 +18.3 79 +27 +28 душно 1015.9 1014.1
З 5-7
{7}
30 км 10/10 1000 м
[]
+22.9 +16.6 68 +28 +28 душно 1015.8 1014.0
З 5-7
{8}
40 км 1 балл +23.7 +13.8 54 +26 +30 жарко 1015.6 1013.8
З 6-8
{9}
22 км 1/1
[]
+23.2 +13.4 54 +26 +28 жарко 1015.5 1013.7
СЗ 5-7
{8}
30 км ясно +22.9 +12.3 51 +26 +27 жарко 1015.5 1013.7
З 3-4
{9}
40 км 1 балл +22.6 +14.2 59 +26 +27 жарко 1015.5 1013.7 +24.3
З 3-4
{6}
30 км 1/1
[]
+20.1 +14.6 71 +23 +23 комфорт 1015.6 1013.7
З 3-4
{5}
40 км ясно +17.8 +13.8 77 +18 +18 1016.0 1014.1
З 1-1
{6}
30 км 10 баллов +16.5 +14.7 89 +17 +17 1015.7 1013.9
ЮЗ 1-2
{2}
26 км 10/10
[]
+15.1 +14.4 96 +16 +16 1015.8 1013.9
ЮЗ 1-1
{2}
13 км 10/10
[]
+14.5 +14.3 99 +15 +15 1015.8 1013.9
ЮЗ 3-5
{6}
18 км 10 баллов +16.9 +14.5 86 +17 +17 1015.6 1013.7
ЮЗ 3-4
{5}
29 км 9/9
[]
+16.5 +13.6 83 +16 +16 1015.1 1013.3
ЮЗ 2-3
{5}
24 км 8/8
[]
+15.8 +13.7 87 +16 +16 1014.8 1013.0
ЮЗ 3-5
{5}
23 км 10 баллов +15.6 +13.5 87 +15 +15 1014.8 1013.1
ЮЗ 2-4
{5}
19 км 10/10 300 м
[]
+15.0 +13.6 91 +15 +15 1014.7 1013.0
ЮЗ 4-5
{5}
12 км 10/10
[]
+15.1 +14.0 93 +14 +14 1014.8 1012.8
З 4-6
{6}
11 км 10 баллов +16.1 +15.0 93 +15 +15 1014.7 1012.9 +14.2
З 4-5
{6}
11 км 10/10 300 м
[]
+16.8 +15.5 92 +16 +16 1015.2 1013.3
СЗ 4-5
{5}
20 км 10/8 600 м
[]
+19.2 +15.2 78 +21 +21 комфорт 1015.5 1013.6
СЗ 4-6
{7}
30 км 10 баллов +20.2 +14.5 70 +23 +23 комфорт 1016.0 1014.0
З 5-7
{8}
30 км 9/9 1500 м
[]
+20.4 +13.7 65 +23 +23 комфорт 1016.1 1014.2
СЗ 4-7
{10}
35 км 10/10 1000 м
[]
+19.6 +13.4 67 +21 +21 комфорт 1016.4 1014.4
З 6-10
{10}
30 км 6 баллов +21.9 +13.9 60 +25 +27 комфорт 1016.4 1014.6
З 6-9
{10}
30 км 5/5 1500 м
[]
+20.7 +11.9 57 +23 +25 комфорт 1016.5 1014.6
СЗ 6-9
{10}
35 км 1/1 1000 м
[]
+21.4 +11.9 55 +24 +28 комфорт 1016.3 1014.4
СЗ 5-10
{10}
30 км ясно +20.7 +10.9 53 +22 +27 комфорт 1016.2 1014.3
СЗ 5-8
{9}
35 км ясно +20.3 +10.9 55 +22 +25 комфорт 1016.0 1014.2
З 5-7
{8}
35 км ясно +19.9 +8.5 48 +21 +22 комфорт 1015.9 1014.0
СЗ 2-4
{10}
40 км ясно +19.3 +8.5 50 +21 +21 комфорт 1016.0 1014.1 +22.1
С 1-1
{4}
45 км ясно +16.6 +9.5 63 +18 +18 1016.0 1014.1
штиль 0
{1}
30 км 5/5
[]
+13.0 +10.6 85 +13 +13 1016.3 1014.3
С 1-1
{4}
40 км 9 баллов +11.6 +9.9 89 +11 +11 1016.2 1014.3
СЗ 1-1
{1}
45 км 10/10
[]
+10.8 +9.8 94 +10 +10 1016.2 1014.3
штиль 0
{1}
40 км 10/10
[]
+10.4 +9.8 96 +10 +10 1015.9 1014.0
СВ 1-1
{4}
35 км 10 баллов +10.1 +9.7 97 +9 +9 1015.8 1013.9
штиль 0-1
{1}
27 км 10/10
[]
+10.4 +10.0 97 +10 +10 1015.4 1013.5
СВ 1-1
{1}
30 км 10/10
[]
+9.6 +9.0 96 +9 +9 1015.0 1013.1
СВ 1-1
{1}
35 км 10 баллов +10.1 +9.6 97 +9 +9 1014.7 1012.8
штиль 0-1
{2}
30 км 10/10
[]
+10.6 +9.9 95 +10 +10 1014.5 1012.6
В 1-1
{1}
21 км 10/10
[]
+11.2 +10.9 98 +11 +11 1014.2 1012.4
В 1-1
{2}
18 км 10 баллов +12.7 +11.9 95 +13 +13 1014.3 1012.4 +9.5
Ю 1-2
{2}
21 км 10/10
[]
+15.4 +12.8 84 +16 +16 1014.6 1012.7
Ю 2-4
{4}
30 км 10/10
[]
+17.9 +12.9 73 +18 +18 1014.4 1012.5
ЮЗ 3-5
{5}
30 км 10 баллов +19.1 +12.5 66 +20 +20 1014.3 1012.4
З 4-6
{6}
25 км 9/9 1000 м
[]
+19.7 +12.7 64 +21 +22 комфорт 1014.0 1012.2
ЮЗ 2-4
{5}
27 км 10/10
[]
+20.5 +12.3 59 +23 +23 комфорт 1013.6 1011.8
З 3-6
{6}
30 км 10 баллов +22.3 +12.1 52 +25 +25 комфорт 1013.4 1011.5
СЗ 4-7
{11}
12 км морось с дождем {ливн. дождь} 10/9 1000 м
[]
+15.5 +14.1 91 +14 +15 1014.0 1012.2 2
СВ 3-4
{8}
14 км слаб. дождь 10/10 2000 м
[]
+15.6 +14.3 92 +15 +15 1014.3 1012.4 4
В 1-1
{11}
24 км слаб. дождь {морось} 10 баллов +15.9 +14.5 91 +17 +17 1014.1 1012.3 0.3
С 1-2
{2}
30 км слаб. морось {дождь} 10/10
[]
+16.1 +14.5 90 +17 +17 1014.1 1012.2 0.2
СЗ 3-5
{5}
40 км в посл. час морось {ливн. дождь, дождь} 10/10
[]
+17.9 +14.7 82 +18 +18 1013.9 1012.0
СЗ 3-5
{11}
30 км {ливн. дождь, дождь} 10 баллов +17.4 +13.9 80 +17 +18 1014.0 1012.1 +22.3 7
СЗ 2-4
{5}
45 км 5/5
[]
+16.2 +12.4 78 +16 +16 1014.5 1012.6
СЗ 2-3
{4}
45 км 10/10
[]
+15.4 +12.2 81 +15 +15 1015.2 1013.2
С 1-2
{5}
35 км 5 баллов +14.2 +12.4 89 +15 +15 1015.6 1013.7
СЗ 1-1
{2}
22 км 6/6 600 м
[]
+13.0 +12.5 97 +13 +13 1016.2 1014.2
СЗ 1-1
{1}
7000 м дымка ясно +12.1 +11.8 98 +12 +12 1016.7 1014.7
СЗ 1-1
{5}
7000 м дымка ясно +10.6 +10.6 100 +10 +10 1016.9 1015.0
штиль 0
{1}
5000 м дымка 6/6 600 м
[]
+9.9 +9.9 100 +9 +9 1016.8 1015.0
СЗ 1-1
{1}
2500 м дымка ясно +9.6 +9.6 100 +9 +9 1016.7 1014.8
штиль 0
{1}
7000 м дымка ясно +8.5 +8.4 99 +7 +7 1016.7 1014.7
штиль 0-1
{1}
3600 м дымка ясно +8.6 +8.5 99 +8 +8 1016.9 1015.0
штиль 0
{1}
15 км ясно +8.9 +8.9 100 +8 +8 1017.3 1015.4
штиль 0-1
{1}
24 км 1 балл +12.6 +12.4 99 +12 +14 1017.6 1015.7 +8.3 6.9
С 1-2
{2}
30 км 1/1
[]
+16.6 +12.1 75 +17 +22 1018.1 1016.2
Местоположение метеостанции Вунстдрехт (Нидерланды): широта 51.45 долгота 4.33 высота над уровнем моря 17 м.
В архиве по умолчанию представлена погода в Вунстдрехте за последнюю неделю. Архивные данные за месяц целиком и за предыдущие месяцы, начиная с января 2011 года, Вы можете получить, выбрав интересующий диапазон дат из раскрывающегося списка и нажав кнопку "Найти!".
*Определитесь, кто Вы:
Внимание! Время в таблицах - всемирное. Для получения местного времени необходимо прибавить поправку, которая равна 1 ч.
Смотрите также архив погоды в соседних городах и на ближайших метеорологических станциях:
Партнеры нашего сайта:      
Пояснения к столбцам:
  • Ветер - указаны скорость ветра в м/с - средняя за 10 мин, порывы в срок и между сроками (в фигурных скобках) и направление, откуда дует ветер: С - северный,
  • СВ - северо-восточный, В - восточный, ЮВ - юго-восточный, Ю - южный, ЮЗ - юго-западный, З - западный, СЗ - северо-западный.
  • Видимость - горизонтальная дальность видимости в метрах или километрах. При видимости от 1 до 10 км при отсутствии осадков обычно наблюдается дымка, при ухудшении видимости до 1 км и менее - туман. В сухую погоду видимость может ухудшаться дымом, пылью или мглою.
  • Явления - указаны атмосферные явления, наблюдавшиеся в срок или в последний час перед сроком; фигурными скобками обозначены явления, наблюдавшиеся между сроками (за 1-3 часа до срока); квадратными скобками обозначены град или гололедные отложения с указанием их диаметра в мм.
  • Облачность - указаны через наклонную черту общая и нижняя облачность в баллах и высота нижней границы облаков в метрах; квадратными скобками обозначены формы облаков: Ci - перистые, Cs - перисто-слоистые, Cc - перисто-кучевые, Ac - высококучевые, As - высокослоистые, Sc - слоисто-кучевые, Ns - слоисто-дождевые, Cu - кучевые, Cb - кучево-дождевые. Подробнее классификацию облаков см. в Атласе облаков (PDF).
  • T - Температура воздуха - температура, измеренная на высоте 2 м над землей.
  • Td - Температура точки росы - температура, при понижении до которой содержащийся в воздухе водяной пар достигнет насыщения.
  • f - Относительная влажность воздуха - влажноcть воздуха, измеренная на высоте 2 м над землей.
  • Te - Эффективная температура - температура, которую ощущает одетый по сезону человек в тени. Характеристика душности погоды. При расчете учитывается влияние влажности воздуха и скорости ветра на теплоощущения человека.
  • Tes - Эффективная температура на солнце - температура, которую ощущает человек, с поправкой на солнечный нагрев. Характеристика знойности погоды. Зависит от высоты солнца над горизонтом, облачности и скорости ветра. Ночью, в пасмурную погоду, а также при ветре 12 м/с и более поправка равна нулю.
  • P - Атмосферное давление - приведенное к уровню моря атмосферное давление.
  • Po - Атмосферное давление - измеренное на уровне метеостанции атмосферное давление.
  • Tmin - Минимальная температура - минимум температуры воздуха на высоте 2 м над землей.
  • Tmax - Максимальная температура - максимум температуры воздуха на высоте 2 м над землей.
  • R - Количество осадков - Количество выпавших осадков за период времени, мм. При наведении курсора мыши на число - период времени, за который выпало указанное количество осадков.
  • R24 - Количество осадков - Количество выпавших осадков за 24 часа, мм.
  • S - Снежный покров - Высота снежного покрова, см. При наведении курсора мыши на число - состояние снежного покрова и степень покрытия местности в баллах.